Location: Newark
(46.7000°N, 60.6000°W)
Time: 10:02:09
(UTC+00:00)

Transit 2A Rocket - Pass Details

Date: 29 October 2020
Orbit: 588 x 915 km, 66.7° (Epoch: 23 November)

Event Time Altitude Azimuth Distance (km) Brightness Sun altitude
Rises 16:51:25 0° 293° (WNW) 3,508 8.4 27.8°
Reaches altitude 10° 16:56:16 10° 328° (NNW) 2,508 7.4 27.5°
Maximum altitude 16:57:53 11° 344° (NNW) 2,404 7.2 27.4°
Drops below altitude 10° 16:59:30 10° 1° (N) 2,457 7.2 27.3°
Sets 17:04:04 0° 36° (NE) 3,301 7.7 27.0°
